Portada
METAR-TAF:

METAR-TAF

Aeroports :

Skyhaven Airport

Rochester, Nova Hampshire, Estats Units d'Amèrica

latitud: 43-16-41N, longitud: 070-55-20W, altitud: 98 m

Observació

L'informe es va fer fa 22 minuts, a les 23:51 UTC
Vent 16 kt del Nord-Oest amb ràfegues de 26 kt
Temperatura -2°C
Humitat 43%
Pressió 1002 hPa
Visibilitat: 16.1 km
Cel clar

METAR: KDAW 042351Z AUTO 31016G26KT 10SM CLR M02/M13 A2960 RMK AO2 PK WND 29028/2336 SLP023 T10221133 10011 21022 53008

Hora: 19:13 (00:13 UTC)


TAF: manca

Observacions i pronòstics meteorològics de més de 4000 aeroports (METAR i TAF).

Les estacions disponibles són els punts grocs i vermells al mapa.

Posi el ratolí al punt desitjat per veure el nom de l'estació.

Feu clic per veure les observacions i els pronòstics meteorològics.

Per canviar el mapa: feu clic els botons verds amb una creu de color negre per apropar; al botó verd amb un guió per allunyar la imatge; o en les fletxes verdes per a mapes adjacents.


METAR-TAF: